This is the latest recevied weather packets stored in our database for station/object KD8OZS. If no packets are shown the sender has not sent any weather packets the latest 10 day(s).
| Time | Temp. | Humidity | Pressure | Rain* | Wind** | Luminosity | Snow |
|---|---|---|---|---|---|---|---|
| 1777898490 | 13.33° C | 63% | 1001.6 hPa | 0 mm | - | 340 W/m² | - |
| 1777898188 | 13.33° C | 63% | 1001.7 hPa | 0 mm | - | 332 W/m² | - |
| 1777897885 | 13.33° C | 63% | 1001.9 hPa | 0 mm | - | 310 W/m² | - |
| 1777897580 | 12.78° C | 63% | 1001.8 hPa | 0 mm | - | 284 W/m² | - |
| 1777897276 | 12.78° C | 64% | 1001.8 hPa | 0 mm | - | 259 W/m² | - |
| 1777896973 | 13.33° C | 64% | 1001.8 hPa | 0 mm | - | 239 W/m² | - |
| 1777896669 | 12.78° C | 64% | 1001.6 hPa | 0 mm | - | 224 W/m² | - |
| 1777896366 | 12.22° C | 66% | 1001.7 hPa | 0 mm | - | 196 W/m² | - |
| 1777896064 | 12.22° C | 65% | 1001.7 hPa | 0 mm | - | 180 W/m² | - |
| 1777895762 | 11.67° C | 66% | 1001.8 hPa | 0 mm | - | 177 W/m² | - |
| 1777895459 | 11.67° C | 65% | 1001.7 hPa | 0 mm | - | 158 W/m² | - |
| 1777895157 | 11.11° C | 68% | 1001.6 hPa | 0 mm | - | 109 W/m² | - |
| 1777894854 | 11.11° C | 68% | 1001.8 hPa | 0 mm | - | 95 W/m² | - |
| 1777894551 | 11.11° C | 67% | 1001.5 hPa | 0 mm | - | 63 W/m² | - |
| 1777894248 | 11.11° C | 67% | 1001.6 hPa | 0 mm | - | 81 W/m² | - |
| 1777893945 | 10.56° C | 69% | 1001.4 hPa | 0 mm | - | 78 W/m² | - |
| 1777893642 | 10° C | 69% | 1001.4 hPa | 0 mm | - | 40 W/m² | - |
| 1777893338 | 10° C | 69% | 1001.4 hPa | 0 mm | - | 38 W/m² | - |
| 1777893034 | 10° C | 70% | 1001.3 hPa | 0 mm | - | 27 W/m² | - |
| 1777892732 | 10° C | 71% | 1001.4 hPa | 0 mm | - | 24 W/m² | - |
| 1777892427 | 9.44° C | 71% | 1001.6 hPa | 0 mm | - | 21 W/m² | - |
| 1777892123 | 9.44° C | 71% | 1001.5 hPa | 0 mm | - | 19 W/m² | - |
| 1777891821 | 9.44° C | 72% | 1001.4 hPa | 0 mm | - | 15 W/m² | - |
| 1777891517 | 9.44° C | 72% | 1001.4 hPa | 0 mm | - | 12 W/m² | - |
| 1777891214 | 9.44° C | 72% | 1001.3 hPa | 0 mm | - | 10 W/m² | - |
* Rain latest hour (hover to see other rain measurements)
** Current wind speed in m/s (hover to see current wind gust speed)